| time (UTC) | temp F | wind direction | speed knots | gust knots | rain 1hr in | rain 24hr in | rain mn in | humidity % | barometer mb |
| 20260831113003 | 69 | 152 | 2.6 | 5.2 | 0.00 | 0.11 | 0.11 | 99 | 1014.8 |
| 20260831112004 | 69 | 115 | 2.6 | 4.3 | 0.00 | 0.11 | 0.11 | 99 | 1015.0 |
| 20260831111004 | 69 | 94 | 2.6 | 4.3 | 0.00 | 0.11 | 0.11 | 99 | 1014.8 |
| 20260831110003 | 69 | 81 | 1.7 | 4.3 | 0.00 | 0.11 | 0.11 | 99 | 1015.1 |
| 20260831103004 | 69 | 103 | 1.7 | 4.3 | 0.04 | 0.11 | 0.11 | 99 | 1015.1 |
| 20260831100004 | 70 | 106 | 1.7 | 6.1 | 0.09 | 0.11 | 0.11 | 99 | 1015.6 |
| 20260831095004 | 70 | 109 | 2.6 | 4.3 | 0.07 | 0.08 | 0.08 | 99 | 1016.0 |
| 20260831094004 | 70 | 95 | 0.9 | 2.6 | 0.06 | 0.07 | 0.07 | 99 | 1016.0 |
| 20260831093004 | 70 | 81 | 2.6 | 2.6 | 0.05 | 0.07 | 0.07 | 99 | 1015.7 |
| 20260831092003 | 70 | 56 | 0.9 | 1.7 | 0.05 | 0.06 | 0.06 | 99 | 1015.9 |
| 20260831090004 | 70 | 85 | 0.9 | 2.6 | 0.00 | 0.02 | 0.02 | 99 | 1015.8 |
| 20260831083004 | 70 | 110 | 0.9 | 1.7 | 0.00 | 0.02 | 0.02 | 99 | 1015.9 |
| 20260831082003 | 70 | 92 | 0.9 | 1.7 | 0.00 | 0.02 | 0.02 | 99 | 1016.0 |
| 20260831081004 | 70 | 99 | 0.9 | 1.7 | 0.00 | 0.02 | 0.02 | 99 | 1015.7 |
| 20260831075004 | 70 | 112 | 0.9 | 2.6 | 0.00 | 0.02 | 0.02 | 99 | 1015.7 |
| 20260831073003 | 70 | 102 | 1.7 | 1.7 | 0.00 | 0.02 | 0.02 | 99 | 1016.1 |
| 20260831071003 | 70 | 90 | 1.7 | 2.6 | 0.00 | 0.02 | 0.02 | 99 | 1016.5 |
| 20260831070003 | 70 | 85 | 1.7 | 1.7 | 0.02 | 0.02 | 0.02 | 98 | 1016.9 |
| 20260831065003 | 71 | 110 | 0.9 | 1.7 | 0.02 | 0.02 | 0.02 | 98 | 1017.0 |
| 20260831064003 | 71 | 128 | 1.7 | 5.2 | 0.02 | 0.02 | 0.02 | 98 | 1017.1 |
| 20260831063004 | 71 | 180 | 2.6 | 2.6 | 0.02 | 0.02 | 0.02 | 98 | 1017.5 |
| 20260831062004 | 71 | 173 | 1.7 | 2.6 | 0.02 | 0.02 | 0.02 | 97 | 1017.6 |
| 20260831061004 | 71 | 192 | 1.7 | 4.3 | 0.01 | 0.01 | 0.01 | 96 | 1017.7 |
| 20260831053004 | 72 | 129 | 0.9 | 4.3 | 0.00 | 0.00 | 0.00 | 94 | 1017.6 |
| 20260831052004 | 72 | 196 | 2.6 | 5.2 | 0.00 | 0.00 | 0.00 | 94 | 1017.8 |
| 20260831051003 | 72 | 200 | 1.7 | 4.3 | 0.00 | 0.00 | 0.00 | 94 | 1017.5 |
| 20260831044003 | 72 | 277 | 0.9 | 1.7 | 0.00 | 0.00 | 0.00 | 93 | 1017.4 |
| 20260831043004 | 72 | 71 | 0.0 | 1.7 | 0.00 | 0.00 | 0.00 | 93 | 1017.3 |
| 20260831042004 | 72 | 119 | 0.0 | 1.7 | 0.00 | 0.00 | 0.00 | 93 | 1017.0 |
| 20260831040004 | 72 | 84 | 0.0 | 1.7 | 0.00 | 0.00 | 0.00 | 93 | 1017.1 |
| 20260831035004 | 72 | 103 | 0.9 | 0.9 | 0.00 | 0.00 | 0.00 | 93 | 1017.1 |
| 20260831034003 | 72 | 94 | 0.9 | 1.7 | 0.00 | 0.00 | 0.00 | 93 | 1017.3 |
| 20260831033004 | 72 | 84 | 0.9 | 2.6 | 0.00 | 0.00 | 0.00 | 92 | 1017.2 |
| 20260831032004 | 72 | 103 | 0.9 | 1.7 | 0.00 | 0.00 | 0.00 | 92 | 1017.1 |
| 20260831030004 | 72 | 124 | 0.9 | 1.7 | 0.00 | 0.00 | 0.00 | 91 | 1017.0 |
| 20260831025004 | 72 | 95 | 0.0 | 1.7 | 0.00 | 0.00 | 0.00 | 91 | 1017.0 |
| 20260831022003 | 73 | 72 | 1.7 | 4.3 | 0.00 | 0.00 | 0.00 | 89 | 1016.9 |
| 20260831021004 | 73 | 83 | 0.9 | 5.2 | 0.00 | 0.00 | 0.00 | 88 | 1016.8 |
| 20260831020004 | 73 | 80 | 1.7 | 4.3 | 0.00 | 0.00 | 0.00 | 88 | 1016.5 |
| 20260831014004 | 73 | 113 | 0.9 | 1.7 | 0.00 | 0.00 | 0.00 | 88 | 1016.5 |
| 20260831013004 | 74 | 92 | 0.9 | 1.7 | 0.00 | 0.00 | 0.00 | 87 | 1016.8 |
| 20260831012003 | 74 | 126 | 0.9 | 2.6 | 0.00 | 0.00 | 0.00 | 87 | 1016.8 |
| 20260831011004 | 74 | 86 | 2.6 | 4.3 | 0.00 | 0.00 | 0.00 | 87 | 1016.5 |
| 20260831010004 | 74 | 84 | 1.7 | 2.6 | 0.00 | 0.00 | 0.00 | 88 | 1016.4 |
| 20260831005004 | 74 | 73 | 0.9 | 2.6 | 0.00 | 0.00 | 0.00 | 89 | 1016.3 |
| 20260831003004 | 75 | 115 | 0.9 | 2.6 | 0.00 | 0.00 | 0.00 | 88 | 1016.2 |
| 20260831002004 | 75 | 40 | 1.7 | 5.2 | 0.00 | 0.00 | 0.00 | 89 | 1016.1 |
| 20260831000003 | 75 | 2 | 2.6 | 5.2 | 0.00 | 0.00 | 0.00 | 88 | 1016.2 |
| 20260830235003 | 76 | 19 | 2.6 | 5.2 | 0.00 | 0.00 | 0.00 | 87 | 1016.0 |
| 20260830234004 | 76 | 340 | 0.9 | 4.3 | 0.00 | 0.00 | 0.00 | 86 | 1015.7 |
| 20260830233004 | 76 | 35 | 1.7 | 1.7 | 0.00 | 0.00 | 0.00 | 86 | 1015.8 |
| 20260830232004 | 76 | 39 | 2.6 | 4.3 | 0.00 | 0.00 | 0.00 | 86 | 1016.0 |
| 20260830231004 | 76 | 21 | 1.7 | 4.3 | 0.00 | 0.00 | 0.00 | 86 | 1015.4 |
| 20260830230003 | 76 | 24 | 3.5 | 5.2 | 0.00 | 0.00 | 0.00 | 86 | 1015.5 |
| 20260830225003 | 76 | 29 | 2.6 | 7.0 | 0.00 | 0.00 | 0.00 | 85 | 1015.6 |
| 20260830224004 | 76 | 353 | 2.6 | 5.2 | 0.00 | 0.00 | 0.00 | 84 | 1015.4 |
| 20260830222003 | 77 | 31 | 1.7 | 5.2 | 0.00 | 0.00 | 0.00 | 81 | 1015.1 |
| 20260830221004 | 77 | 46 | 1.7 | 5.2 | 0.00 | 0.00 | 0.00 | 80 | 1015.0 |
| 20260830220004 | 77 | 8 | 2.6 | 6.1 | 0.00 | 0.00 | 0.00 | 79 | 1015.0 |
| 20260830214003 | 77 | 7 | 2.6 | 7.0 | 0.00 | 0.00 | 0.00 | 78 | 1015.1 |
| 20260830213004 | 78 | 21 | 1.7 | 6.1 | 0.00 | 0.00 | 0.00 | 78 | 1015.3 |
| 20260830211004 | 77 | 11 | 3.5 | 6.1 | 0.00 | 0.00 | 0.00 | 78 | 1015.3 |
| 20260830210004 | 77 | 66 | 1.7 | 4.3 | 0.00 | 0.00 | 0.00 | 79 | 1015.6 |
| 20260830205003 | 77 | 33 | 1.7 | 2.6 | 0.00 | 0.00 | 0.00 | 78 | 1015.8 |
| 20260830203004 | 78 | 39 | 2.6 | 4.3 | 0.00 | 0.01 | 0.00 | 78 | 1015.7 |
| 20260830202004 | 79 | 3 | 0.9 | 4.3 | 0.00 | 0.01 | 0.00 | 76 | 1015.4 |
| 20260830201004 | 79 | 63 | 1.7 | 2.6 | 0.00 | 0.02 | 0.00 | 76 | 1015.5 |
| 20260830200004 | 82 | 30 | 2.6 | 2.6 | 0.00 | 0.02 | 0.00 | 69 | 1015.0 |
| 20260830194004 | 82 | 30 | 2.6 | 2.6 | 0.00 | 0.02 | 0.00 | 69 | 1015.0 |
| 20260830193003 | 82 | 30 | 2.6 | 2.6 | 0.00 | 0.02 | 0.00 | 69 | 1015.0 |
| 20260830192003 | 82 | 30 | 2.6 | 2.6 | 0.00 | 0.02 | 0.00 | 69 | 1015.0 |
| 20260830191003 | 82 | 30 | 2.6 | 2.6 | 0.00 | 0.02 | 0.00 | 69 | 1015.0 |
| 20260830190003 | 82 | 30 | 2.6 | 2.6 | 0.00 | 0.02 | 0.00 | 69 | 1015.0 |
| 20260830185003 | 82 | 30 | 2.6 | 2.6 | 0.00 | 0.03 | 0.00 | 69 | 1015.0 |
| 20260830184004 | 82 | 30 | 2.6 | 2.6 | 0.00 | 0.03 | 0.00 | 69 | 1015.0 |
| 20260830182003 | 82 | 30 | 2.6 | 2.6 | 0.00 | 0.03 | 0.00 | 69 | 1015.0 |
| 20260830181003 | 82 | 30 | 2.6 | 6.1 | 0.00 | 0.03 | 0.00 | 69 | 1015.0 |
| 20260830180004 | 83 | 267 | 2.6 | 7.0 | 0.00 | 0.03 | 0.00 | 68 | 1015.0 |
| 20260830175004 | 85 | 286 | 2.6 | 7.0 | 0.00 | 0.04 | 0.00 | 62 | 1015.2 |
| 20260830174004 | 84 | 319 | 0.9 | 5.2 | 0.00 | 0.04 | 0.00 | 63 | 1015.2 |
| 20260830173004 | 84 | 288 | 1.7 | 5.2 | 0.00 | 0.04 | 0.00 | 63 | 1015.1 |
| 20260830171003 | 82 | 243 | 2.6 | 7.8 | 0.00 | 0.04 | 0.00 | 66 | 1015.2 |
| 20260830165004 | 80 | 0 | 1.7 | 5.2 | 0.00 | 0.04 | 0.00 | 71 | 1015.6 |
| 20260830163004 | 79 | 285 | 1.7 | 6.1 | 0.00 | 0.04 | 0.00 | 72 | 1015.5 |
| 20260830162003 | 80 | 299 | 3.5 | 5.2 | 0.00 | 0.04 | 0.00 | 72 | 1015.9 |
| 20260830161004 | 78 | 204 | 2.6 | 7.0 | 0.00 | 0.05 | 0.00 | 74 | 1016.1 |
| 20260830160003 | 78 | 208 | 2.6 | 5.2 | 0.00 | 0.06 | 0.00 | 75 | 1016.1 |
| 20260830153004 | 77 | 210 | 2.6 | 6.1 | 0.00 | 0.06 | 0.00 | 77 | 1016.1 |
| 20260830152003 | 76 | 192 | 2.6 | 7.0 | 0.00 | 0.06 | 0.00 | 78 | 1015.9 |
| 20260830151004 | 76 | 200 | 4.3 | 6.1 | 0.00 | 0.06 | 0.00 | 78 | 1016.3 |
| 20260830150003 | 76 | 228 | 1.7 | 7.8 | 0.00 | 0.06 | 0.00 | 79 | 1016.2 |
| 20260830145004 | 75 | 207 | 1.7 | 6.1 | 0.00 | 0.06 | 0.00 | 79 | 1016.1 |
| 20260830144004 | 75 | 202 | 3.5 | 6.1 | 0.00 | 0.06 | 0.00 | 79 | 1016.1 |
| 20260830143004 | 74 | 119 | 1.7 | 4.3 | 0.00 | 0.06 | 0.00 | 81 | 1015.9 |
| 20260830141004 | 74 | 122 | 1.7 | 7.8 | 0.00 | 0.06 | 0.00 | 83 | 1016.0 |
| 20260830140003 | 73 | 183 | 2.6 | 5.2 | 0.00 | 0.06 | 0.00 | 83 | 1016.4 |
| 20260830135003 | 73 | 159 | 2.6 | 5.2 | 0.00 | 0.06 | 0.00 | 84 | 1016.5 |
| 20260830134004 | 72 | 171 | 1.7 | 2.6 | 0.00 | 0.06 | 0.00 | 86 | 1016.8 |
| 20260830133004 | 72 | 112 | 1.7 | 4.3 | 0.00 | 0.06 | 0.00 | 86 | 1016.4 |
| 20260830132004 | 71 | 149 | 2.6 | 2.6 | 0.00 | 0.06 | 0.00 | 86 | 1016.7 |
| 20260830131004 | 71 | 179 | 2.6 | 4.3 | 0.00 | 0.06 | 0.00 | 87 | 1016.8 |
| 20260830130004 | 71 | 112 | 0.9 | 4.3 | 0.00 | 0.06 | 0.00 | 87 | 1016.6 |
| 20260830124004 | 70 | 129 | 1.7 | 2.6 | 0.00 | 0.06 | 0.00 | 88 | 1016.7 |
| 20260830123003 | 70 | 128 | 2.6 | 4.3 | 0.00 | 0.06 | 0.00 | 88 | 1016.6 |
| 20260830122004 | 70 | 122 | 1.7 | 7.0 | 0.00 | 0.06 | 0.00 | 88 | 1016.4 |
| 20260830121003 | 70 | 159 | 2.6 | 6.1 | 0.00 | 0.06 | 0.00 | 88 | 1016.5 |
| 20260830120004 | 69 | 134 | 2.6 | 5.2 | 0.00 | 0.06 | 0.00 | 89 | 1016.5 |
| 20260830115004 | 69 | 117 | 1.7 | 2.6 | 0.00 | 0.06 | 0.00 | 90 | 1016.4 |
| 20260830114003 | 69 | 107 | 0.9 | 4.3 | 0.00 | 0.06 | 0.00 | 90 | 1016.2 |